Regional Weather Roundup
Issued by NWS State College, PA

Home | Current Version | Previous Version | Graphics & Text | Print | Product List | Glossary On
Versions: 1 2 3 4 5 6 7 8 9 10 11 12 13 14 15 16 17 18 19 20 21 22 23 24 25 26 27 28 29 30 31 32 33 34 35 36 37 38 39 40 41 42 43 44 45 46 47 48 49 50
000
ASUS41 KCTP 310910
RWRCTP

REGIONAL WEATHER ROUNDUP
NATIONAL WEATHER SERVICE STATE COLLEGE PA
500 AM EDT WED AUG 31 2016

Note: "fair" indicates few or no clouds below 12,000 feet with no
significant weather and/or obstructions to visibility.

* = STATION THAT DOES NOT REPORT PRECIPITATION /E.G. RAIN...SNOW...ETC/
    THUNDER OR FOG.

PAZ002>004-007>009-013>016-020>023-029>032-311000-
WESTERN PENNSYLVANIA

CITY           SKY/WX    TMP DP  RH WIND       PRES   REMARKS
ERIE           CLOUDY    72  61  68 S8        29.99F
MEADVILLE      CLOUDY    68  55  63 CALM      30.03F
FRANKLIN*        N/A     64  57  77 CALM      30.05F
NEW CASTLE     FAIR      62  61  96 CALM      30.03F
BEAVER COUNTY  NOT AVBL
BUTLER*        NOT AVBL
PITTSBURGH INT CLOUDY    63  57  81 CALM      30.03F
PITTSBURGH     MOCLDY    67  57  70 CALM      30.03F
INDIANA*       CLEAR     61  59  94 CALM      30.08S
LATROBE        MOCLDY    57  57 100 CALM      30.05F
WASHINGTON CO* CLEAR     55  54  94 CALM      30.05S
$$

PAZ004>006-010>012-017>019-024>028-033>037-041-042-045-046-049>053-311000-
CENTRAL PENNSYLVANIA

CITY           SKY/WX    TMP DP  RH WIND       PRES   REMARKS
BRADFORD       LGT RAIN  62  61  96 CALM      30.07F
DUBOIS         PTCLDY    62  59  90 E3        30.06F
CLEARFIELD     NOT AVBL
JOHNSTOWN      PTCLDY    62  55  77 SW6       30.08F
ALTOONA        PTCLDY    60  59  96 CALM      30.06F
STATE COLLEGE  PTCLDY    60  60  97 CALM      30.05F
WILLIAMSPORT   CLOUDY    64  61  90 CALM      30.02S
SELINSGROVE    CLOUDY    61  61 100 CALM      30.03F
FT INDIANTOWN  CLOUDY    60  60  98 N2        30.03F
CAPITAL CITY   CLEAR     66  62  87 CALM      30.03S
HARRISBURG     MOCLDY    69  67  93 S3        30.02F
YORK           CLEAR     59  59 100 CALM      30.03F
$$

PAZ038>040-043-044-047-048-054-055-060>062-067>071-311000-
EASTERN PENNSYLVANIA

CITY           SKY/WX    TMP DP  RH WIND       PRES   REMARKS
SCRANTON       CLOUDY    63  59  87 CALM      30.04S
MOUNT POCONO   CLOUDY    58  54  86 CALM      30.07F
ALLENTOWN      CLEAR     62  58  86 NW3       30.03F
QUAKERTOWN*    CLOUDY    63  61  94 CALM      30.04F
READING        CLEAR     63  59  87 CALM      30.02F
LANCASTER      CLEAR     64  63  96 CALM      30.03F
COATESVILLE    SUNNY     63  59  88 W6        30.05F
POTTSTOWN      MOCLDY    62  61  96 CALM      30.04F
BLUE BELL      CLOUDY    64  64 100 CALM      30.02F
DOYLESTOWN     CLOUDY    71  70  96 CALM      30.02F
WILLOW GROVE   NOT AVBL
NORTH PHILA    PTCLDY    74  72  93 CALM      30.03F
PHILADELPHIA   PTCLDY    73  70  90 SW7       30.02F
$$




USA.gov is the U.S. government's official web portal to all federal, state and local government web resources and services.